Bloomington, IN

1:05 PM EDT on April 27, 2017 (GMT -0400)
Monroe County

Weather History for KBMG - January, 2013

Change the Weather History Date:

Thursday, January 24, 2013

  Actual Average Record
Temperature  
Mean Temperature 19 °F 30 °F  
Max Temperature 26 °F 39 °F 55 °F (2002)
Min Temperature 11 °F 20 °F -6 °F (2014)
Degree Days  
Heating Degree Days 46 35  
Month to date heating degree days 837 862  
Since 1 July heating degree days 2851 2935  
Cooling Degree Days 0 0  
Month to date cooling degree days 0 0  
Year to date cooling degree days 0 0  
Moisture  
Dew Point 4 °F    
Average Humidity 50    
Maximum Humidity 73    
Minimum Humidity 27    
Precipitation  
Precipitation T in 0.08 in 0.43 in (2002)
Month to date precipitation 3.85 2.70  
Year to date precipitation 3.85 2.70  
Sea Level Pressure  
Sea Level Pressure 30.44 in    
Wind  
Wind Speed 8 mph (NNE)    
Max Wind Speed 17 mph    
Max Gust Speed 24 mph    
Visibility 10 miles    
Events Snow    
T = Trace of Precipitation, MM = Missing Value Source: NWS Daily Summary

Daily Weather History Graph

Daily Weather History Graph

Search for Another Location

Airport or City:

Trip Planner

Search our weather history database for the weather conditions in past years. The results will help you decide how hot, cold, wet, or windy it might be!

Date:

Astronomy

Jan. 24, 2013 Rise Set
Actual Time 7:59 AM EST 5:58 PM EST
Civil Twilight 7:30 AM EST 6:27 PM EST
Nautical Twilight 6:58 AM EST 6:59 PM EST
Astronomical Twilight 6:26 AM EST 7:31 PM EST
Moon 4:00 PM EST (1/24) 5:56 AM EST (1/24)
Length of Visible Light 10h 56m
Length of Day
9h 59m
Waxing Gibbous, 94% of the Moon is Illuminated
Jan 24
Waxing Gibbous
Jan 26
Full
Feb 3
Last Quarter
Feb 10
New
Feb 17
First Quarter

Hourly Weather History & Observations

Time (EST) Temp. Windchill Dew Point Humidity Pressure Visibility Wind Dir Wind Speed Gust Speed Precip Events Conditions
12:53 AM 24.1 °F 15.2 °F 10.9 °F 57% 30.22 in 10.0 mi NNW 8.1 mph - N/A   Partly Cloudy
1:53 AM 23.0 °F 11.1 °F 10.0 °F 58% 30.27 in 10.0 mi NNW 12.7 mph 19.6 mph N/A   Overcast
2:53 AM 21.0 °F 10.6 °F 10.9 °F 65% 30.31 in 10.0 mi NNW 9.2 mph - N/A   Mostly Cloudy
3:23 AM 19.4 °F 10.4 °F 10.4 °F 68% 30.30 in 10.0 mi NW 6.9 mph - N/A   Mostly Cloudy
3:38 AM 19.4 °F 9.5 °F 10.4 °F 68% 30.31 in 10.0 mi NNW 8.1 mph - N/A   Mostly Cloudy
3:53 AM 19.9 °F 10.1 °F 10.9 °F 68% 30.35 in 10.0 mi NNW 8.1 mph - N/A   Overcast
4:14 AM 19.4 °F 6.6 °F 12.2 °F 74% 30.34 in 1.8 mi North 12.7 mph 17.3 mph 0.00 in Snow Light Snow
4:26 AM 19.4 °F 7.2 °F 14.0 °F 80% 30.34 in 3.0 mi North 11.5 mph - 0.00 in Snow Light Snow
4:53 AM 18.0 °F 4.2 °F 9.0 °F 68% 30.38 in 10.0 mi North 13.8 mph - 0.00 in   Scattered Clouds
5:53 AM 15.1 °F 2.5 °F 7.0 °F 70% 30.43 in 10.0 mi North 10.4 mph - N/A   Clear
6:53 AM 14.0 °F 2.0 °F 6.1 °F 71% 30.49 in 10.0 mi North 9.2 mph - N/A   Mostly Cloudy
7:03 AM 14.0 °F 2.0 °F 6.8 °F 73% 30.46 in 10.0 mi North 9.2 mph - N/A   Scattered Clouds
7:53 AM 12.0 °F 4.1 °F 5.0 °F 73% 30.52 in 10.0 mi North 4.6 mph - N/A   Clear
8:53 AM 14.0 °F 2.9 °F 7.0 °F 74% 30.54 in 10.0 mi North 8.1 mph - N/A   Clear
9:53 AM 17.1 °F 5.8 °F 9.0 °F 71% 30.57 in 10.0 mi North 9.2 mph - N/A   Clear
10:53 AM 19.9 °F - 8.1 °F 60% 30.59 in 10.0 mi Calm Calm - N/A   Clear
11:53 AM 21.9 °F 13.4 °F 3.9 °F 46% 30.60 in 10.0 mi NNE 6.9 mph - N/A   Clear
12:53 PM 24.1 °F 17.0 °F 3.0 °F 40% 30.57 in 10.0 mi NNE 5.8 mph - N/A   Clear
1:53 PM 25.0 °F 19.3 °F 1.9 °F 37% 30.53 in 10.0 mi NE 4.6 mph - N/A   Clear
2:53 PM 25.0 °F 19.3 °F -2.0 °F 31% 30.52 in 10.0 mi ENE 4.6 mph - N/A   Clear
3:53 PM 25.0 °F 20.7 °F -5.1 °F 27% 30.52 in 10.0 mi Variable 3.5 mph - N/A   Clear
4:53 PM 25.0 °F 17.1 °F -5.1 °F 27% 30.51 in 10.0 mi ENE 6.9 mph - N/A   Clear
5:53 PM 23.0 °F 13.9 °F -4.0 °F 31% 30.49 in 10.0 mi ESE 8.1 mph - N/A   Clear
6:53 PM 23.0 °F 13.1 °F -2.9 °F 32% 30.49 in 10.0 mi East 9.2 mph - N/A   Clear
7:53 PM 21.9 °F 12.5 °F -4.0 °F 32% 30.50 in 10.0 mi ESE 8.1 mph - N/A   Clear
8:53 PM 21.9 °F 14.5 °F -2.9 °F 34% 30.47 in 10.0 mi East 5.8 mph - N/A   Clear
9:53 PM 21.9 °F 12.5 °F -2.0 °F 35% 30.44 in 10.0 mi ESE 8.1 mph - N/A   Clear
10:53 PM 21.9 °F 10.4 °F -2.0 °F 35% 30.41 in 10.0 mi ESE 11.5 mph - N/A   Clear
11:53 PM 21.9 °F 9.8 °F -0.9 °F 37% 30.39 in 10.0 mi ESE 12.7 mph - N/A   Clear